Red Wing, WI

1:13 AM CDT on April 30, 2017 (GMT -0500)
Red Wing Municipal

Weather History for KRGK - November, 2013

Change the Weather History Date:

Thursday, November 7, 2013

  Actual Average Record
Temperature  
Mean Temperature 30 °F -  
Max Temperature 37 °F 44 °F 68 °F (2001)
Min Temperature 24 °F 29 °F 15 °F (2003)
Degree Days  
Heating Degree Days 34    
Moisture  
Dew Point 27 °F    
Average Humidity 85    
Maximum Humidity 100    
Minimum Humidity 70    
Precipitation  
Precipitation 0.00 in - - ()
Sea Level Pressure  
Sea Level Pressure 30.19 in    
Wind  
Wind Speed 6 mph (West)    
Max Wind Speed 12 mph    
Max Gust Speed -    
Visibility 8 miles    
Events      
Averages and records for this station are not official NWS values.
T = Trace of Precipitation, MM = Missing Value Source: NWS Daily Summary

Daily Weather History Graph

Daily Weather History Graph

Search for Another Location

Airport or City:

Trip Planner

Search our weather history database for the weather conditions in past years. The results will help you decide how hot, cold, wet, or windy it might be!

Date:

Astronomy

Nov. 07, 2013 Rise Set
Actual Time 6:56 AM CST 4:50 PM CST
Civil Twilight 6:25 AM CST 5:21 PM CST
Nautical Twilight 5:50 AM CST 5:56 PM CST
Astronomical Twilight 5:16 AM CST 6:30 PM CST
Moon 11:07 AM CST (11/7) 9:01 PM CST (11/7)
Length of Visible Light 10h 56m
Length of Day
9h 54m
Waxing Crescent, 23% of the Moon is Illuminated
Nov 7
Waxing Crescent
Nov 9
First Quarter
Nov 17
Full
Nov 25
Last Quarter
Dec 2
New

Hourly Weather History & Observations

Time (CST) Temp. Windchill Dew Point Humidity Pressure Visibility Wind Dir Wind Speed Gust Speed Precip Events Conditions
12:15 AM 32.0 °F 25.6 °F 26.6 °F 80% 30.16 in 10.0 mi West 6.9 mph - N/A   Scattered Clouds
12:34 AM 32.0 °F 25.6 °F 26.6 °F 80% 30.16 in 10.0 mi West 6.9 mph - N/A   Scattered Clouds
12:55 AM 32.0 °F 26.4 °F 26.6 °F 80% 30.16 in 10.0 mi West 5.8 mph - N/A   Scattered Clouds
1:15 AM 30.2 °F 24.3 °F 26.6 °F 86% 30.17 in 10.0 mi WNW 5.8 mph - N/A   Scattered Clouds
1:34 AM 30.2 °F 26.7 °F 26.6 °F 86% 30.17 in 10.0 mi WNW 3.5 mph - N/A   Scattered Clouds
1:55 AM 30.2 °F 23.4 °F 26.6 °F 86% 30.16 in 10.0 mi WNW 6.9 mph - N/A   Mostly Cloudy
2:14 AM 30.2 °F 23.4 °F 24.8 °F 80% 30.16 in 10.0 mi WNW 6.9 mph - N/A   Scattered Clouds
2:35 AM 30.2 °F 25.4 °F 26.6 °F 86% 30.16 in 10.0 mi WNW 4.6 mph - N/A   Scattered Clouds
2:54 AM 30.2 °F 21.9 °F 26.6 °F 86% 30.16 in 10.0 mi West 9.2 mph - N/A   Mostly Cloudy
3:15 AM 30.2 °F 21.9 °F 26.6 °F 86% 30.16 in 10.0 mi West 9.2 mph - N/A   Overcast
3:35 AM 30.2 °F 22.6 °F 26.6 °F 86% 30.16 in 10.0 mi West 8.1 mph - N/A   Overcast
3:54 AM 30.2 °F 23.4 °F 26.6 °F 86% 30.16 in 7.0 mi West 6.9 mph - N/A   Overcast
4:15 AM 30.2 °F 24.3 °F 28.4 °F 93% 30.16 in 7.0 mi West 5.8 mph - N/A   Overcast
4:35 AM 30.2 °F 25.4 °F 26.6 °F 86% 30.16 in 7.0 mi NW 4.6 mph - N/A   Overcast
4:54 AM 30.2 °F 24.3 °F 28.4 °F 93% 30.16 in 7.0 mi West 5.8 mph - N/A   Overcast
5:15 AM 30.2 °F 25.4 °F 28.4 °F 93% 30.17 in 7.0 mi West 4.6 mph - N/A   Overcast
5:35 AM 30.2 °F 24.3 °F 28.4 °F 93% 30.17 in 7.0 mi West 5.8 mph - N/A   Overcast
5:54 AM 30.2 °F 25.4 °F 28.4 °F 93% 30.18 in 7.0 mi NW 4.6 mph - N/A   Overcast
6:15 AM 30.2 °F 24.3 °F 28.4 °F 93% 30.18 in 7.0 mi WNW 5.8 mph - N/A   Overcast
6:35 AM 30.2 °F 22.6 °F 28.4 °F 93% 30.18 in 7.0 mi WNW 8.1 mph - N/A   Overcast
6:54 AM 30.2 °F 24.3 °F 28.4 °F 93% 30.19 in 7.0 mi West 5.8 mph - N/A   Overcast
7:15 AM 32.0 °F 27.5 °F 28.4 °F 87% 30.20 in 7.0 mi West 4.6 mph - N/A   Overcast
7:35 AM 30.2 °F 24.3 °F 28.4 °F 93% 30.20 in 7.0 mi West 5.8 mph - N/A   Overcast
7:54 AM 30.2 °F 24.3 °F 28.4 °F 93% 30.20 in 5.0 mi West 5.8 mph - N/A   Overcast
8:15 AM 32.0 °F 27.5 °F 28.4 °F 87% 30.20 in 7.0 mi WSW 4.6 mph - N/A   Overcast
8:35 AM 32.0 °F 26.4 °F 28.4 °F 87% 30.21 in 7.0 mi WNW 5.8 mph - N/A   Overcast
8:54 AM 32.0 °F 27.5 °F 28.4 °F 87% 30.21 in 7.0 mi WSW 4.6 mph - N/A   Overcast
9:15 AM 32.0 °F 25.6 °F 28.4 °F 87% 30.22 in 7.0 mi West 6.9 mph - N/A   Overcast
9:35 AM 32.0 °F 27.5 °F 28.4 °F 87% 30.22 in 7.0 mi West 4.6 mph - N/A   Overcast
9:55 AM 32.0 °F 26.4 °F 28.4 °F 87% 30.22 in 7.0 mi West 5.8 mph - N/A   Overcast
10:15 AM 33.8 °F 29.6 °F 28.4 °F 81% 30.22 in 7.0 mi West 4.6 mph - N/A   Overcast
10:35 AM 33.8 °F 28.6 °F 28.4 °F 81% 30.22 in 7.0 mi West 5.8 mph - N/A   Overcast
10:55 AM 33.8 °F - 28.4 °F 81% 30.22 in 7.0 mi Calm Calm - N/A   Overcast
11:15 AM 35.6 °F - 28.4 °F 75% 30.21 in 7.0 mi Calm Calm - N/A   Overcast
11:35 AM 35.6 °F 31.7 °F 28.4 °F 75% 30.21 in 7.0 mi West 4.6 mph - N/A   Mostly Cloudy
11:55 AM 37.4 °F 34.9 °F 28.4 °F 70% 30.20 in 10.0 mi West 3.5 mph - N/A   Mostly Cloudy
12:15 PM 35.6 °F 29.9 °F 30.2 °F 81% 30.21 in 10.0 mi WNW 6.9 mph - N/A   Overcast
12:35 PM 35.6 °F 27.5 °F 30.2 °F 81% 30.21 in 10.0 mi West 11.5 mph - N/A   Overcast
12:55 PM 35.6 °F 27.5 °F 28.4 °F 75% 30.20 in 10.0 mi West 11.5 mph - N/A   Overcast
1:15 PM 35.6 °F 29.9 °F 28.4 °F 75% 30.20 in 10.0 mi WNW 6.9 mph - N/A   Overcast
1:34 PM 35.6 °F 28.6 °F 28.4 °F 75% 30.20 in 10.0 mi West 9.2 mph - N/A   Overcast
1:55 PM 35.6 °F 28.6 °F 28.4 °F 75% 30.19 in 10.0 mi WNW 9.2 mph - N/A   Overcast
2:15 PM 35.6 °F 28.6 °F 28.4 °F 75% 30.19 in 10.0 mi WNW 9.2 mph - N/A   Overcast
2:35 PM 35.6 °F 30.7 °F 28.4 °F 75% 30.19 in 10.0 mi WNW 5.8 mph - N/A   Overcast
2:55 PM 35.6 °F 30.7 °F 28.4 °F 75% 30.19 in 10.0 mi WNW 5.8 mph - N/A   Overcast
3:15 PM 37.4 °F 30.8 °F 28.4 °F 70% 30.19 in 10.0 mi WNW 9.2 mph - N/A   Overcast
3:35 PM 37.4 °F 30.3 °F 28.4 °F 70% 30.20 in 10.0 mi West 10.4 mph - N/A   Overcast
3:55 PM 35.6 °F 27.5 °F 28.4 °F 75% 30.20 in 10.0 mi West 11.5 mph - N/A   Overcast
4:15 PM 35.6 °F 28.0 °F 28.4 °F 75% 30.20 in 10.0 mi West 10.4 mph - N/A   Mostly Cloudy
4:34 PM 35.6 °F 28.0 °F 28.4 °F 75% 30.20 in 10.0 mi WNW 10.4 mph - N/A   Overcast
4:55 PM 33.8 °F 27.0 °F 28.4 °F 81% 30.21 in 10.0 mi West 8.1 mph - N/A   Scattered Clouds
5:15 PM 33.8 °F 28.6 °F 28.4 °F 81% 30.21 in 10.0 mi West 5.8 mph - N/A   Scattered Clouds
5:34 PM 33.8 °F 30.8 °F 28.4 °F 81% 30.21 in 10.0 mi West 3.5 mph - N/A   Mostly Cloudy
5:55 PM 33.8 °F 27.7 °F 28.4 °F 81% 30.21 in 10.0 mi West 6.9 mph - N/A   Mostly Cloudy
6:15 PM 32.0 °F - 26.6 °F 80% 30.21 in 10.0 mi Calm Calm - N/A   Scattered Clouds
6:34 PM 30.2 °F 24.3 °F 26.6 °F 86% 30.21 in 10.0 mi West 5.8 mph - N/A   Clear
6:55 PM 30.2 °F - 26.6 °F 86% 30.21 in 7.0 mi Calm Calm - N/A   Clear
7:14 PM 30.2 °F - 26.6 °F 86% 30.21 in 7.0 mi Calm Calm - N/A   Clear
7:35 PM 30.2 °F - 26.6 °F 86% 30.21 in 5.0 mi Calm Calm - N/A   Clear
7:55 PM 28.4 °F - 26.6 °F 93% 30.20 in 4.0 mi Calm Calm - N/A   Clear
8:14 PM 26.6 °F - 26.6 °F 100% 30.20 in 4.0 mi Calm Calm - N/A   Clear
8:35 PM 26.6 °F - 26.6 °F 100% 30.20 in 3.0 mi Calm Calm - N/A   Clear
8:55 PM 26.6 °F - 26.6 °F 100% 30.21 in 3.0 mi Calm Calm - N/A   Clear
9:14 PM 26.6 °F - 26.6 °F 100% 30.21 in 3.0 mi Calm Calm - N/A   Clear
9:35 PM 26.6 °F - 24.8 °F 93% 30.21 in 3.0 mi Calm Calm - N/A   Clear
9:55 PM 26.6 °F - 24.8 °F 93% 30.21 in 4.0 mi Calm Calm - N/A   Clear
10:15 PM 26.6 °F - 24.8 °F 93% 30.21 in 3.0 mi Calm Calm - N/A   Clear
10:35 PM 24.8 °F - 24.8 °F 100% 30.21 in 3.0 mi Calm Calm - N/A   Clear
10:55 PM 24.8 °F - 23.0 °F 93% 30.21 in 3.0 mi Calm Calm - N/A   Clear
11:15 PM 24.8 °F - 23.0 °F 93% 30.20 in 4.0 mi Calm Calm - N/A   Clear
11:35 PM 24.8 °F - 23.0 °F 93% 30.20 in 4.0 mi Calm Calm - N/A   Clear
11:54 PM 24.8 °F - 23.0 °F 93% 30.20 in 4.0 mi Calm Calm - N/A   Clear